Weather in Abalak

Russia / Tyumen Oblast     58°07′50″N   68°35′48″E
temp.,
°C
wind,
m/s
gust,
m/s
humid.,
%
clouds,
%
prec.,
mm/h
press.,
hPa
HPBL,
m
12 april, mon
mon1223:00+6sw51484100 0.0 1030497
02:00+6sw41390100 0.0 1029424
05:00+5wsw41097100 1.7 1029347
08:00+6w3799100 1.3 1029289
11:00+9wnw3578100 1.4 1030872
14:00+11nw5860100 0.0 10311625
17:00+9nnw596796 0.1 10331343
20:00+5nw22720 0.0 103526
13 april, tue
tue1323:00+3nw23781 0.0 103649
02:00+2wnw25850 0.0 103788
05:00+1w38870 0.0 1038147
08:00+4wnw487574 0.0 1039364
11:00+8wnw57585 0.0 10381029
14:00+10w57455 0.0 10371194
17:00+11w58422 0.0 10361120
20:00+7wsw396198 0.0 1035176
14 april, wed
wed1423:00+6wsw41267100 0.0 1033263
02:00+5sw41274100 0.0 1031307
05:00+5sw41484100 0.0 1029361
08:00+7wsw51482100 0.0 1028462
11:00+13w61063100 0.0 1026764
14:00+16wnw595253 0.0 10251350
17:00+16wnw4752100 0.0 10241213
20:00+11wnw127010 0.0 102410
15 april, thu
thu1523:00+9sw22805 0.0 102414
02:00+8wsw379063 0.0 1022115
05:00+6wsw38935 0.0 1022165
08:00+10wsw410795 0.0 1020333
11:00+15w58535 0.0 10191033
14:00+18w69375 0.0 10171505
17:00+18w610355 0.0 10151535
20:00+12wsw310545 0.0 1015196
16 april, fri
fri1623:00+10w3106745 0.0 1014181
02:00+7nne498985 0.0 1015297
05:00+4ne379257 0.0 1016244
08:00+6ene467855 0.0 1016544
11:00+5ene5679100 0.0 1017773
14:00+2ene61190100 0.1 1017585
17:00+1ene51295100 0.6 1016643
20:000ene61394100 1.9 1015687